Vertical_Velocity
-0 1 1 -4 -1 1 -2 5 -1 -3 -0 -3 -0 3 -2 -1 2 -5 -0 -2 -2 1 3 1 3 2 2 3 2 0 3 -1 -1 -2 -5 -5 -1 -0 -1 -0 -2 -2 -0 -1 -0 -1 -0 -1 -3
-2 -0 0 -2 -3 1 1 4 9 4 5 -1 -1 4 1 -4 -4 -0 -3 0 -2 4 3 3 1 2 2 2 3 3 3 -0 1 -0 0 -3 -2 -2 -3 1 0 -3 2 1 -1 1 -1 -1 -1
-1 -3 -1 -4 -2 -1 3 8 9 18 6 0 -3 5 4 -1 -2 -0 2 3 1 0 1 6 2 1 1 2 2 4 2 1 0 0 2 -3 -3 -1 -1 2 -2 -0 1 0 -0 1 -1 2 -3
-6 2 -1 -2 -5 11 10 0 -3 11 14 5 5 -4 3 -1 -2 -2 -3 1 -3 -2 -2 -1 4 2 1 0 3 4 2 1 -1 -0 3 2 -1 -2 -1 -0 1 -0 -1 0 1 -1 1 3 2
-3 -2 1 -4 -3 10 3 -5 -0 15 1 5 -3 -2 -5 3 2 -1 -6 -2 0 -3 -2 1 3 0 3 4 4 5 4 2 2 2 2 -1 -0 -3 -3 -2 -1 -1 0 -0 -1 -1 -2 -0 -0
-0 -3 -1 -4 1 3 3 8 4 6 17 5 2 4 -5 -3 -2 -2 -2 2 -4 1 3 -1 -3 -4 1 2 2 2 3 2 0 -1 2 1 3 1 -1 0 -1 -0 1 -0 0 1 1 -1 1
3 -2 -2 -2 4 4 5 6 5 -2 -8 -8 -0 1 -1 3 1 -3 -12 -10 3 -4 -2 -2 3 3 4 8 4 3 4 4 3 3 6 5 1 3 -0 -0 -0 1 -2 -1 1 1 1 3 -2
0 -4 -3 -1 4 1 2 5 3 6 2 1 2 -0 -1 0 4 -2 -2 -8 -2 -5 -3 2 2 1 1 2 5 5 6 6 4 0 -0 -1 -1 -1 0 -1 -1 -1 -2 -1 -3 -2 -0 -0 1
-3 -3 1 1 -3 1 1 1 7 5 1 3 1 1 4 -1 -1 0 -0 -2 -7 -4 -12 -3 -0 -2 -1 1 2 9 7 3 1 1 2 0 1 2 2 2 2 3 2 -2 -4 -1 1 1 2
-2 -4 -1 2 -0 -0 0 -3 -1 3 5 5 -1 9 3 1 -5 -1 3 4 0 -1 -1 -4 1 -4 -2 1 -3 -7 -5 -2 -0 1 2 5 4 2 3 1 3 3 4 5 4 -3 -3 2 2
2 -4 2 5 -0 -4 -0 1 -0 -5 -1 1 -1 -5 10 -17 8 4 1 -3 4 -0 1 -1 -5 -3 10 -3 -0 11 6 11 6 -0 1 -1 2 3 3 1 0 0 5 2 3 2 -2 -1 1
2 1 1 6 1 -5 -3 -1 4 6 -0 -3 -0 -6 0 1 4 4 3 0 -2 -0 4 7 0 -2 2 3 5 -12 4 3 5 12 3 2 -2 -2 -0 -0 1 -1 -1 2 -1 0 1 -6 -4
-4 5 2 1 5 1 -1 3 -3 9 -2 1 -7 3 1 -3 -2 -7 -5 -1 -0 -0 1 2 2 0 -3 3 0 6 3 -7 11 8 5 -5 -1 1 2 4 0 4 0 1 2 1 -1 1 -5
1 -3 -5 -4 6 3 -1 -7 0 5 1 -2 -1 -1 -2 -5 -6 -1 0 -0 -1 -4 -0 5 2 4 -0 -1 0 2 8 3 -3 1 10 9 5 5 2 2 1 3 2 3 3 1 1 1 3
-1 -9 -2 3 -2 1 2 -3 -3 -2 6 -5 -5 -8 -9 -7 -5 -5 -5 -4 -3 -3 -6 -11 -1 -0 8 3 3 3 5 4 8 -6 -6 -3 10 3 5 -3 1 0 4 3 -1 2 -2 -2 -0
-5 1 -5 2 1 -2 -3 -4 9 6 1 3 -2 -2 -2 -3 0 0 -1 -2 -2 -0 -0 -4 -6 -12 -5 2 3 3 3 2 2 2 3 -3 -21 5 4 3 1 2 -1 2 3 -1 2 0 -1
0 -0 -1 -1 3 -1 -1 -3 -1 1 4 3 2 2 -0 -2 -7 -9 -9 -7 -7 -13 -16 -9 -2 -1 -9 -8 1 -1 2 8 0 4 5 5 8 -7 11 3 3 2 0 -2 0 11 -3 2 3
1 -2 0 -3 2 1 -4 3 2 -2 -0 1 1 -6 -7 -6 -4 -3 -4 -5 -2 -3 -2 2 -9 -9 -6 -5 -9 1 -8 -0 6 -0 6 5 7 30 22 17 0 3 5 -4 -2 -0 0 4 1
3 1 -4 6 0 -3 3 10 4 3 -1 2 1 -4 -4 -1 -2 -1 -4 -7 1 -4 -8 -8 -6 1 -7 -8 -6 -6 1 -3 0 3 4 1 18 -53 -0 -14 16 7 -1 3 7 9 3 1 -0
-3 -1 -2 -4 6 11 1 3 1 2 -2 -2 -4 -3 0 0 -1 -2 0 -1 -5 -8 -6 -5 -4 -6 -2 -5 -5 -5 -6 5 -3 1 1 1 4 21 16 14 -25 4 7 -7 2 6 8 -4 3
1 3 0 4 -5 3 7 -3 -6 -3 0 -1 -3 -1 2 -2 -1 0 -1 -7 -13 -9 -8 -11 -5 -5 -0 -7 -7 -4 -6 -2 2 4 -5 -3 -2 23 -9 28 -4 -6 8 -15 -2 1 -3 -2 6
2 4 4 3 3 -4 5 -8 -3 -0 1 -1 0 2 1 -1 -4 -5 -3 -6 -12 -4 -4 -8 -6 -6 -2 2 -6 -8 -4 -8 -0 1 0 -1 -3 2 11 15 -0 17 24 5 -1 3 -3 -7 -3
-6 4 3 0 1 5 -2 6 -4 -2 -4 0 0 2 0 -2 -5 -7 -10 -7 -0 -5 -6 -7 -8 -3 -3 -2 -4 -4 -7 -6 -0 0 3 4 1 -6 13 7 18 8 25 -3 17 22 -13 -12 7
7 1 4 5 4 4 -12 5 -0 -3 -4 2 2 -1 -4 -4 -5 -5 -4 -2 -2 -4 -5 -4 -4 -5 -1 -3 -2 -5 -7 -3 -0 4 -2 3 7 -6 -11 15 13 49 60 12 15 13 29 -2 10
5 4 -3 -2 2 -7 5 9 -8 -0 -1 -0 -2 -3 -2 -3 -3 -6 -2 -5 -6 -6 -3 -2 -4 -0 -1 -3 1 2 -5 -3 0 -1 1 -2 -5 -0 -10 14 6 -22 -56 47 40 10 14 11 7
-3 -3 -6 -3 -1 -3 -4 1 -6 -4 -3 -3 -2 -4 -2 -2 -4 -1 -6 -10 -9 -5 -3 -6 -7 -4 -4 -0 -1 1 -2 -5 1 2 -4 1 -5 -7 3 6 -1 13 21 -36 -73 51 14 21 -2
-2 2 -7 8 -0 4 -1 -1 -2 -5 -4 -4 -2 -2 -1 -3 -2 -2 -7 -7 -5 -3 -5 -6 -3 -4 -3 -8 -9 -4 -3 -2 -6 0 -5 3 -5 16 -3 -8 -10 29 40 20 -78 -2 3 10 14
3 2 4 5 -1 -0 0 -2 -3 -6 -3 -1 -1 -1 -2 -1 -2 -5 -4 -2 -1 -4 -2 -2 -1 -3 -4 0 -0 -0 1 -1 1 -5 1 -7 -5 2 6 -3 -3 -6 -5 -5 -43 -36 -10 13 9
-0 -8 3 1 1 -3 -1 -6 -5 -4 -2 -3 -1 1 1 -1 -2 -7 -4 -1 -4 -2 -2 -2 -0 0 2 1 -4 2 1 5 -4 1 3 -3 5 8 13 4 -5 -11 -1 23 10 16 69 -11 5
21 6 11 7 -2 2 -0 -10 2 -1 -1 -3 1 -1 -0 -0 -3 -5 -1 -1 -4 0 2 -4 1 1 7 3 2 10 4 11 3 15 10 25 6 6 13 -16 -0 6 -21 4 -31 -29 -6 6 1
Height
3158 3158 3159 3159 3164 3160 3161 3161 3159 3159 3161 3161 3160 3158 3158 3159 3159 3164 3164 3164 3167 3169 3169 3169 3169 3167 3168 3169 3169 3168 3167 3166 3165 3164 3163 3162 3161 3160 3159 3159 3159 3160 3160 3159 3160 3160 3161 3161 3161
3157 3158 3158 3159 3162 3159 3161 3162 3163 3162 3161 3160 3160 3158 3156 3157 3161 3161 3162 3163 3166 3168 3168 3167 3167 3166 3166 3167 3167 3167 3166 3165 3164 3163 3162 3161 3161 3160 3159 3159 3159 3159 3161 3160 3160 3160 3160 3160 3160
3156 3156 3158 3158 3158 3160 3162 3161 3164 3163 3160 3159 3157 3157 3155 3156 3160 3160 3161 3161 3163 3164 3165 3164 3164 3163 3163 3164 3165 3165 3164 3163 3163 3162 3161 3160 3160 3159 3159 3159 3158 3158 3160 3160 3160 3160 3160 3160 3160
3153 3156 3157 3157 3158 3161 3163 3158 3158 3162 3157 3157 3153 3154 3157 3157 3157 3157 3159 3159 3160 3162 3161 3160 3160 3160 3160 3161 3162 3163 3162 3162 3161 3161 3160 3159 3159 3158 3158 3157 3157 3158 3158 3159 3159 3160 3159 3159 3159
3150 3152 3153 3155 3156 3161 3159 3156 3155 3157 3155 3154 3151 3153 3153 3154 3156 3157 3158 3158 3158 3159 3158 3157 3156 3156 3157 3158 3160 3161 3161 3160 3160 3159 3158 3158 3157 3156 3156 3156 3156 3156 3157 3157 3158 3158 3159 3159 3158
3148 3149 3151 3152 3154 3158 3157 3155 3153 3153 3154 3152 3151 3149 3150 3152 3154 3156 3158 3158 3157 3157 3155 3155 3155 3154 3154 3154 3156 3157 3157 3157 3157 3157 3156 3156 3156 3155 3155 3154 3154 3154 3155 3156 3156 3157 3158 3158 3158
3147 3146 3149 3150 3152 3154 3155 3155 3153 3152 3153 3153 3153 3151 3151 3151 3151 3153 3151 3154 3153 3154 3154 3153 3152 3151 3151 3152 3152 3153 3154 3154 3154 3154 3154 3154 3154 3153 3154 3153 3153 3153 3153 3154 3155 3155 3156 3157 3157
3145 3145 3147 3149 3150 3151 3152 3154 3152 3152 3150 3152 3151 3148 3149 3148 3148 3148 3150 3150 3148 3151 3151 3149 3148 3147 3147 3148 3150 3149 3150 3151 3151 3151 3151 3151 3151 3150 3151 3151 3151 3151 3151 3152 3152 3153 3154 3154 3155
3143 3145 3144 3146 3146 3147 3147 3150 3151 3150 3150 3150 3151 3147 3145 3144 3146 3146 3146 3146 3142 3140 3144 3142 3142 3141 3141 3142 3144 3147 3147 3148 3148 3148 3148 3148 3148 3148 3148 3148 3148 3148 3149 3150 3150 3150 3152 3152 3152
3140 3141 3141 3143 3144 3144 3144 3145 3147 3149 3148 3148 3148 3149 3144 3141 3141 3139 3139 3141 3142 3140 3138 3142 3139 3136 3137 3137 3140 3141 3144 3144 3144 3144 3145 3145 3145 3145 3145 3144 3145 3146 3146 3147 3148 3149 3149 3151 3151
3138 3138 3140 3141 3141 3141 3141 3143 3142 3144 3144 3141 3141 3140 3142 3135 3132 3132 3132 3135 3137 3136 3135 3133 3134 3133 3133 3131 3131 3133 3136 3139 3140 3140 3140 3141 3141 3141 3141 3141 3141 3143 3143 3145 3146 3146 3147 3148 3149
3135 3136 3137 3139 3139 3138 3139 3140 3139 3140 3136 3135 3134 3132 3128 3128 3127 3127 3128 3130 3132 3132 3128 3128 3126 3126 3126 3127 3125 3124 3125 3130 3133 3134 3135 3136 3136 3137 3137 3138 3138 3139 3139 3141 3142 3143 3144 3144 3146
3134 3134 3134 3134 3135 3135 3135 3136 3136 3136 3132 3132 3127 3123 3122 3123 3123 3123 3124 3123 3123 3125 3124 3122 3122 3121 3120 3119 3120 3120 3120 3118 3122 3125 3128 3129 3130 3132 3132 3133 3134 3134 3135 3136 3137 3139 3140 3140 3141
3132 3132 3132 3131 3132 3130 3131 3133 3132 3132 3131 3127 3121 3120 3121 3122 3121 3119 3117 3116 3115 3115 3116 3115 3114 3114 3114 3113 3111 3111 3112 3112 3112 3115 3118 3121 3124 3126 3126 3127 3128 3129 3131 3132 3132 3134 3135 3137 3138
3129 3128 3128 3127 3127 3127 3128 3130 3128 3129 3125 3119 3119 3120 3120 3119 3116 3115 3113 3111 3110 3108 3107 3105 3104 3102 3102 3103 3104 3102 3102 3103 3104 3107 3108 3113 3118 3118 3118 3121 3121 3123 3125 3127 3128 3128 3130 3133 3133
3125 3125 3124 3124 3122 3124 3127 3128 3128 3122 3120 3118 3117 3117 3117 3115 3113 3112 3110 3107 3105 3101 3099 3098 3095 3094 3091 3089 3091 3092 3092 3093 3095 3097 3098 3103 3107 3108 3109 3111 3114 3116 3119 3121 3122 3123 3124 3127 3129
3120 3120 3120 3121 3121 3122 3124 3125 3123 3118 3117 3116 3115 3114 3113 3112 3110 3108 3106 3103 3100 3095 3090 3087 3085 3083 3080 3076 3077 3078 3079 3080 3084 3086 3088 3090 3094 3096 3097 3100 3105 3108 3111 3114 3116 3118 3118 3121 3124
3116 3117 3118 3119 3121 3120 3122 3121 3117 3114 3113 3112 3110 3111 3110 3108 3107 3105 3102 3097 3092 3087 3080 3073 3070 3071 3068 3064 3062 3064 3066 3066 3069 3073 3076 3079 3079 3080 3083 3089 3093 3099 3102 3106 3109 3112 3111 3115 3119
3113 3113 3114 3116 3118 3117 3118 3115 3110 3109 3107 3105 3105 3105 3104 3103 3101 3098 3095 3092 3087 3079 3071 3065 3059 3055 3054 3051 3048 3047 3047 3053 3055 3057 3062 3064 3063 3061 3057 3077 3084 3089 3091 3097 3101 3105 3104 3108 3111
3110 3109 3109 3112 3113 3113 3112 3109 3106 3104 3102 3100 3100 3100 3098 3097 3094 3091 3087 3082 3075 3067 3060 3053 3047 3042 3036 3032 3030 3028 3031 3034 3038 3044 3048 3051 3052 3053 3055 3062 3069 3079 3080 3086 3092 3096 3099 3102 3103
3106 3106 3106 3107 3107 3106 3107 3102 3099 3095 3095 3095 3095 3094 3093 3090 3088 3085 3081 3074 3066 3058 3052 3044 3036 3029 3022 3019 3015 3014 3016 3019 3023 3027 3032 3038 3040 3042 3044 3026 3052 3065 3069 3074 3081 3086 3091 3095 3099
3101 3104 3103 3102 3101 3102 3100 3100 3093 3089 3089 3091 3090 3089 3087 3084 3081 3077 3071 3063 3055 3049 3041 3032 3024 3016 3012 3009 3007 3005 3003 3004 3005 3010 3015 3023 3028 3030 3037 3042 3047 3054 3059 3062 3067 3071 3078 3085 3089
3096 3098 3099 3098 3098 3096 3096 3099 3083 3087 3086 3086 3085 3084 3082 3079 3075 3068 3060 3052 3046 3038 3030 3023 3015 3006 3002 2999 2996 2995 2994 2992 2989 2993 3000 3006 3015 3021 3022 3030 3034 3040 3044 3054 3059 3061 3064 3072 3079
3092 3093 3095 3095 3094 3090 3088 3090 3080 3082 3083 3082 3081 3080 3079 3074 3066 3060 3053 3046 3040 3031 3022 3015 3004 2997 2992 2990 2987 2983 2981 2979 2979 2979 2984 2992 2996 3006 3010 3017 3023 3030 2999 3034 3044 3054 3058 3062 3069
3086 3090 3092 3091 3091 3086 3082 3083 3075 3077 3079 3080 3079 3078 3072 3065 3060 3054 3047 3042 3034 3024 3015 3004 2995 2989 2986 2981 2975 2972 2971 2969 2967 2968 2974 2980 2983 2992 3001 3006 3012 3016 3005 2990 3031 3042 3049 3054 3062
3081 3085 3086 3085 3083 3080 3080 3074 3070 3074 3077 3077 3076 3072 3067 3062 3056 3049 3044 3037 3027 3018 3008 3000 2989 2980 2974 2966 2965 2957 2957 2959 2958 2959 2965 2969 2974 2979 2987 2996 3004 3006 3009 2993 3008 3032 3039 3050 3053
3075 3076 3081 3080 3079 3078 3075 3072 3069 3070 3072 3072 3070 3068 3064 3059 3053 3048 3041 3032 3026 3017 3006 2995 2984 2976 2965 2959 2953 2949 2951 2953 2954 2954 2957 2962 2970 2976 2982 2990 2997 3001 3006 3000 3010 3023 3031 3038 3041
3071 3074 3076 3077 3076 3074 3071 3069 3063 3065 3068 3068 3067 3065 3061 3055 3052 3046 3040 3032 3026 3016 3007 2997 2987 2977 2966 2958 2952 2948 2948 2950 2953 2953 2953 2958 2965 2972 2978 2985 2992 2993 3000 3007 3010 3017 3023 3029 3032
3067 3070 3071 3073 3071 3070 3072 3065 3063 3065 3066 3066 3064 3061 3056 3053 3049 3045 3038 3033 3026 3018 3010 3000 2991 2980 2971 2964 2956 2950 2948 2947 2950 2949 2951 2956 2963 2970 2977 2983 2990 2995 2997 3000 3006 3014 3011 3019 3027
3064 3066 3065 3066 3067 3065 3064 3061 3061 3061 3062 3061 3060 3056 3054 3052 3049 3044 3039 3035 3029 3022 3014 3005 2996 2988 2979 2970 2964 2956 2948 2947 2947 2949 2951 2958 2963 2971 2974 2982 2986 2992 2992 2994 3000 3006 3009 3013 3016